Location: G�yn�k
(36.6721°N, 30.5542°E)
Time: 00:49:05
(UTC+00:00)

BREEZE-M DEB (TANK) - Pass Details

Date: 09 October 2020
Orbit: 333 x 12040 km, 49.7° (Epoch: 26 October)

Event Time Altitude Azimuth Distance (km) Brightness Sun altitude
Rises 01:41:40 0° 209° (SSW) 13,031 8.7 -28.4°
Reaches altitude 10° 01:51:16 10° 207° (SSW) 13,213 8.7 -26.5°
Maximum altitude 03:30:16 87° 131° (SE) 9,891 8.4 -6.8°
Drops below altitude 10° 04:11:35 10° 54° (NE) 7,362 8.6 1.5°
Sets 04:15:05 0° 55° (NE) 7,608 8.7 2.1°
